Tracking 30701 objects as of 14-Jun-2025
HD Live streaming from Space Station
objects crossing your sky now

STARLINK-4618

Track STARLINK-4618 now!
10-day predictions
STARLINK-4618 is classified as:


NORAD ID: 53735
Int'l Code: 2022-107AM
Perigee: 546.0 km
Apogee: 547.6 km
Inclination: 53.2 °
Period: 95.4 minutes
Semi major axis: 6917 km
RCS: Unknown
Launch date: September 5, 2022
Source: United States (US)
Launch site: AIR FORCE EASTERN TEST RANGE (AFETR)
Your satellite tracking list
Your tracking list is empty




NASA's NSSDC Master Catalog

Two Line Element Set (TLE):
1 53735U 22107AM  25165.33518943  .00000895  00000-0  74272-4 0  9998
2 53735  53.2163  28.6227 0001146  86.8243 273.2881 15.08856497153930
Source of the keplerian elements: AFSPC